User: anonymous   Login
Location: Fort Wayne
(41.1310°N, 85.1290°W)
Time: 07:55:20
(UTC-04:00)
Language:

Tiros 1 despin weight - Orbit

View from above orbital plane
View from above orbital plane
View from above satellite
View from above satellite

Ground track
Ground track

The orbit data is extracted from the following two-line orbital elements,

1 00115U 60002D   14297.90636781  .00004557  00000-0  60339-3 0  4998
2 00115 048.1653 102.2238 0036440 168.2261 315.3534 14.80959767906866
Epoch (UTC): 24 October 2014 21:45:10
Eccentricity: 0.0036440
inclination: 48.1653°
perigee height: 601 km
apogee height: 652 km
right ascension of ascending node: 102.2238°
argument of perigee: 168.2261°
revolutions per day: 14.80959767
mean anomaly at epoch: 315.3534°
orbit number at epoch: 90686

The dashed part of the orbit path shows where the satellite is in the earth's shadow,  

DLR